Weather in Psynadakha

Russia / The Kabardino-Balkar Republic     43°51′31″N   43°14′12″E
temp.,
°C
wind,
m/s
gust,
m/s
humid.,
%
clouds,
%
prec.,
mm/h
press.,
hPa
HPBL,
m
2 march, tue
tue200:00−2sw2276100 0.0 102923
03:00−2wsw2271100 0.0 103027
06:00−4wsw336320 0.0 103027
09:000w11569 0.0 1029141
12:00+2sse11570 0.0 1027527
15:00+3sse11620 0.0 1026556
18:00−1sw11750 0.0 102522
21:00−2wsw23740 0.0 102627
3 march, wed
wed300:00−3sw33591 0.0 102436
03:00−2w23581 0.0 102327
06:00−3ssw1166100 0.0 102221
09:00−1sw1172100 0.0 1021220
12:00+2ne2266100 0.0 1020754
15:00+2n3469100 0.0 1020847
18:00−1nw3108799 1.0 1022601
21:00−1wnw61371100 1.1 1026689
4 march, thu
thu400:00−3nw398656 0.1 1027520
03:00−4w238263 0.1 1028117
06:00−6sw33643 0.0 102961
09:00−2s22591 0.0 1028211
12:00+1sse21600 0.0 1026503
15:00+3sse11570 0.0 1024673
18:00−1ssw12740 0.0 102421
21:00−2sw22750 0.0 102427
5 march, fri
fri500:00−2sw22680 0.0 102328
03:00−2ssw22540 0.0 102225
06:00−2sw22480 0.0 102223
09:00+2s22430 0.0 1021142
12:00+6se11460 0.0 1019337
15:00+7se21470 0.0 1019378
18:00+2s22640 0.0 102022
21:00+2sw33590 0.0 102128
6 march, sat
sat600:00+2sw34476 0.0 102131
03:00+2wsw34403 0.0 102029
06:00+2wsw34370 0.0 101927
09:00+7wsw333825 0.0 101877
12:00+11ssw22347 0.0 1015346
15:00+11s243653 0.0 1014512
18:00+7w2347100 0.0 101429
21:00+5w3353100 0.0 101539